Location: Tierz
(42.1336°N, 0.3549°W)
Time: 22:53:45
(UTC+00:00)

Cosmos 2227 Rocket - Pass Details

Date: 29 October 2020
Orbit: 839 x 845 km, 71.0° (Epoch: 25 November)

Event Time Altitude Azimuth Distance (km) Brightness Sun altitude
Rises 18:35:31 0° 331° (NNW) 3,406 5.7 -18.5°
Reaches altitude 10° 18:38:00 10° 328° (NNW) 2,468 5.0 -18.9°
Maximum altitude 18:43:31 56° 251° (WSW) 994 2.8 -20.0°
Drops below altitude 10° 18:49:01 10° 174° (S) 2,456 4.5 -21.0°
Sets 18:51:30 0° 171° (S) 3,387 5.2 -21.4°
